STARLINK-1652 (46367 NORAD) Tracking and Keplerian Element Data

This shows tracking and keplerian element data for the satellite.

Feedback or suggestion? Click here.




ElementValue
Catalog46367
NameSTARLINK-1652
Epoch Orbit178
Epoch Day268.91668981
Epoch Year2020
RAAN324.5328
Inclination53.0008
Eccentricity0.0001259
Argument of Perigee63.2101
Mean Anonmoly130.3965
Mean Motion15.62814228
Decay Rate-0.00068146
L11 46367U 20062AU 20268.91668981 -.00068146 00000-0 -74284-3 0 9997
L22 46367 53.0008 324.5328 0001259 63.2101 130.3965 15.62814228 1783

Live tracking and technical data element details for STARLINK-1652 (NORAD 46367). STARLINK-1652 can be tracked NOW for your location showing map with azimuth and elevation plus other details from your city location.

Track the satellite on the map from your city or location and see movement details for azimuth, elevation, latitude, longitude, range, height, and movement on the map or in text.







IsCatalogInMostPopularTable: catalog: 46367, numindb: 3
Update: records affected: 1



GetName: 46367 STARLINK-1652

Hit Count: updated at: Sat, 26 Sep 2020 14:19:41 GMT